sat.trackr.live / text

‹ back to catalog

STARLINK-37401

NORAD 68784 · 2026-086U

PAYLOAD ACTIVE UNKNOWN

§ Identity

Operator
Country
US
Launch date
2026-04-19
Launch site
AFWTR
Launch vehicle
Mass (kg)
RCS (m²)

Purposes: comms

External: N2YO · Heavens-Above · Gunter

§ Orbital elements

Epoch: 2026-05-25T04:00:03.998880Z

Period
92.40 min
Inclination
97.2852°
Eccentricity
0.0001488
Mean motion
15.58422501 rev/d
Perigee alt
391.2 km
Apogee alt
393.2 km
Semi-major
6,770.4 km
B*
-2.8411e-2
RAAN
182.0044°
Arg perigee
82.5579°
Mean anomaly
218.1874°
Rev number
607

§ Raw data

STARLINK-374011 68784U 26086U   26145.16671295 -.01908069  00000+0 -28411-1 0  99912 68784  97.2852 182.0044 0001488  82.5579 218.1874 15.58422501  6071

JSON: /api/v1/satellites/68784 · /tle

For live sub-satellite position, see the globe view (requires WebGL).

§ Visibility from observer

Set your observer location to see the next 7 days of passes ≥ 10°. The values pass through the URL so the page stays shareable.

No JS? Fill the form by hand. The geolocation button needs JavaScript.